contact:dominique.lefevre@mio.osupytheas.fr, maurice.libes@osupytheas.fr, didier.mallarino@osupytheas.fr
Project:EMSO http://www.emso-fr.org/EMSO-France
Depth: 2436.0 m
Title:EMSO Ligure Ouest : Data MII capteur MICROCAT
DateTime_Computer,Latitude,Longitude,Temperature,Conductivity,Pressure,DateTime_Instrument
DateTime_Computer,Latitude,Longitude,degC,S m-1,dbar,DateTime_Instrument
2021-09-05T00:01:15Z,42.805,6.029,13.2987,4.60001,2470.38,2021-9-05T02:02:35Z
2021-09-05T00:04:18Z,42.805,6.029,13.2990,4.60001,2470.38,2021-9-05T02:05:38Z
2021-09-05T00:07:21Z,42.805,6.029,13.2986,4.60001,2470.404,2021-9-05T02:08:41Z
2021-09-05T00:10:24Z,42.805,6.029,13.2989,4.60001,2470.366,2021-9-05T02:11:45Z
2021-09-05T00:13:28Z,42.805,6.029,13.2989,4.60002,2470.343,2021-9-05T02:14:48Z
2021-09-05T00:16:31Z,42.805,6.029,13.2986,4.60001,2470.38,2021-9-05T02:17:51Z
2021-09-05T00:19:34Z,42.805,6.029,13.2988,4.59999,2470.39,2021-9-05T02:20:54Z
2021-09-05T00:22:37Z,42.805,6.029,13.2985,4.60003,2470.366,2021-9-05T02:23:57Z
2021-09-05T00:25:40Z,42.805,6.029,13.2987,4.60002,2470.404,2021-9-05T02:27:00Z
2021-09-05T00:28:43Z,42.805,6.029,13.2987,4.60001,2470.366,2021-9-05T02:30:03Z
2021-09-05T00:31:46Z,42.805,6.029,13.2984,4.60001,2470.366,2021-9-05T02:33:06Z
2021-09-05T00:34:49Z,42.805,6.029,13.2988,4.60000,2470.366,2021-9-05T02:36:10Z
2021-09-05T00:37:53Z,42.805,6.029,13.2983,4.60001,2470.404,2021-9-05T02:39:13Z
2021-09-05T00:40:56Z,42.805,6.029,13.2987,4.59999,2470.343,2021-9-05T02:42:16Z
2021-09-05T00:43:59Z,42.805,6.029,13.2991,4.60002,2470.404,2021-9-05T02:45:19Z
2021-09-05T00:47:02Z,42.805,6.029,13.2989,4.60002,2470.39,2021-9-05T02:48:22Z
2021-09-05T00:50:05Z,42.805,6.029,13.2986,4.60001,2470.366,2021-9-05T02:51:25Z
2021-09-05T00:53:08Z,42.805,6.029,13.2984,4.60001,2470.366,2021-9-05T02:54:28Z
2021-09-05T00:56:11Z,42.805,6.029,13.2985,4.60000,2470.39,2021-9-05T02:57:31Z
2021-09-05T00:59:14Z,42.805,6.029,13.2988,4.60002,2470.39,2021-9-05T03:00:35Z
2021-09-05T01:02:17Z,42.805,6.029,13.2985,4.60000,2470.366,2021-9-05T03:03:38Z
2021-09-05T01:05:21Z,42.805,6.029,13.2986,4.60000,2470.366,2021-9-05T03:06:41Z
2021-09-05T01:08:24Z,42.805,6.029,13.2990,4.60002,2470.343,2021-9-05T03:09:44Z
2021-09-05T01:11:27Z,42.805,6.029,13.2987,4.60001,2470.343,2021-9-05T03:12:47Z
2021-09-05T01:14:30Z,42.805,6.029,13.2990,4.60000,2470.297,2021-9-05T03:15:50Z
2021-09-05T01:17:33Z,42.805,6.029,13.2989,4.60001,2470.343,2021-9-05T03:18:53Z
2021-09-05T01:20:36Z,42.805,6.029,13.2985,4.60001,2470.366,2021-9-05T03:21:56Z
2021-09-05T01:23:39Z,42.805,6.029,13.2987,4.60000,2470.343,2021-9-05T03:24:59Z
2021-09-05T01:26:42Z,42.805,6.029,13.2986,4.60000,2470.366,2021-9-05T03:28:03Z
2021-09-05T01:29:46Z,42.805,6.029,13.2986,4.59999,2470.38,2021-9-05T03:31:06Z
2021-09-05T01:32:49Z,42.805,6.029,13.2987,4.60002,2470.366,2021-9-05T03:34:09Z
2021-09-05T01:35:52Z,42.805,6.029,13.2987,4.60000,2470.39,2021-9-05T03:37:12Z
2021-09-05T01:38:55Z,42.805,6.029,13.2987,4.59999,2470.343,2021-9-05T03:40:15Z
2021-09-05T01:41:58Z,42.805,6.029,13.2986,4.60001,2470.343,2021-9-05T03:43:18Z
2021-09-05T01:45:01Z,42.805,6.029,13.2986,4.60000,2470.366,2021-9-05T03:46:21Z
2021-09-05T01:48:04Z,42.805,6.029,13.2987,4.60001,2470.366,2021-9-05T03:49:24Z
2021-09-05T01:51:07Z,42.805,6.029,13.2986,4.60003,2470.38,2021-9-05T03:52:28Z
2021-09-05T01:54:10Z,42.805,6.029,13.2986,4.60003,2470.366,2021-9-05T03:55:31Z
2021-09-05T01:57:14Z,42.805,6.029,13.2992,4.60001,2470.343,2021-9-05T03:58:34Z
2021-09-05T02:00:17Z,42.805,6.029,13.2986,4.60001,2470.343,2021-9-05T04:01:37Z
2021-09-05T02:03:20Z,42.805,6.029,13.2984,4.60001,2470.366,2021-9-05T04:04:40Z
2021-09-05T02:06:23Z,42.805,6.029,13.2990,4.60001,2470.404,2021-9-05T04:07:43Z
2021-09-05T02:09:26Z,42.805,6.029,13.2986,4.60002,2470.404,2021-9-05T04:10:46Z
2021-09-05T02:12:29Z,42.805,6.029,13.2989,4.60003,2470.38,2021-9-05T04:13:49Z
2021-09-05T02:15:32Z,42.805,6.029,13.2986,4.60002,2470.366,2021-9-05T04:16:52Z
2021-09-05T02:18:35Z,42.805,6.029,13.2983,4.60001,2470.38,2021-9-05T04:19:56Z
2021-09-05T02:21:39Z,42.805,6.029,13.2988,4.60001,2470.39,2021-9-05T04:22:59Z
2021-09-05T02:24:42Z,42.805,6.029,13.2985,4.59999,2470.366,2021-9-05T04:26:02Z
2021-09-05T02:27:45Z,42.805,6.029,13.2985,4.60000,2470.366,2021-9-05T04:29:05Z
2021-09-05T02:30:48Z,42.805,6.029,13.2990,4.60002,2470.413,2021-9-05T04:32:08Z
2021-09-05T02:33:51Z,42.805,6.029,13.2989,4.60003,2470.39,2021-9-05T04:35:11Z
2021-09-05T02:36:54Z,42.805,6.029,13.2991,4.60002,2470.404,2021-9-05T04:38:14Z
2021-09-05T02:39:57Z,42.805,6.029,13.2988,4.60002,2470.39,2021-9-05T04:41:17Z
2021-09-05T02:43:00Z,42.805,6.029,13.2986,4.60003,2470.366,2021-9-05T04:44:21Z
2021-09-05T02:46:03Z,42.805,6.029,13.2988,4.60001,2470.32,2021-9-05T04:47:24Z
2021-09-05T02:49:07Z,42.805,6.029,13.2986,4.60000,2470.39,2021-9-05T04:50:27Z
2021-09-05T02:52:10Z,42.805,6.029,13.2988,4.60002,2470.366,2021-9-05T04:53:30Z
2021-09-05T02:55:13Z,42.805,6.029,13.2989,4.60001,2470.39,2021-9-05T04:56:33Z
2021-09-05T02:58:16Z,42.805,6.029,13.2988,4.60001,2470.39,2021-9-05T04:59:36Z
2021-09-05T03:01:19Z,42.805,6.029,13.2984,4.60003,2470.39,2021-9-05T05:02:39Z
2021-09-05T03:04:22Z,42.805,6.029,13.2986,4.60004,2470.427,2021-9-05T05:05:42Z
2021-09-05T03:07:25Z,42.805,6.029,13.2986,4.60001,2470.404,2021-9-05T05:08:46Z
2021-09-05T03:10:28Z,42.805,6.029,13.2989,4.60001,2470.366,2021-9-05T05:11:49Z
2021-09-05T03:13:32Z,42.805,6.029,13.2988,4.60003,2470.427,2021-9-05T05:14:52Z
2021-09-05T03:16:35Z,42.805,6.029,13.2986,4.60000,2470.404,2021-9-05T05:17:55Z
2021-09-05T03:19:38Z,42.805,6.029,13.2987,4.60000,2470.413,2021-9-05T05:20:58Z
2021-09-05T03:22:41Z,42.805,6.029,13.2989,4.60001,2470.427,2021-9-05T05:24:01Z
2021-09-05T03:25:44Z,42.805,6.029,13.2987,4.60001,2470.45,2021-9-05T05:27:04Z
2021-09-05T03:28:47Z,42.805,6.029,13.2990,4.60001,2470.437,2021-9-05T05:30:07Z
2021-09-05T03:31:50Z,42.805,6.029,13.2986,4.60001,2470.413,2021-9-05T05:33:10Z
2021-09-05T03:34:53Z,42.805,6.029,13.2984,4.60001,2470.427,2021-9-05T05:36:14Z
2021-09-05T03:37:56Z,42.805,6.029,13.2989,4.59999,2470.427,2021-9-05T05:39:17Z
2021-09-05T03:41:00Z,42.805,6.029,13.2990,4.59999,2470.427,2021-9-05T05:42:20Z
2021-09-05T03:44:03Z,42.805,6.029,13.2987,4.60001,2470.39,2021-9-05T05:45:23Z
2021-09-05T03:47:06Z,42.805,6.029,13.2987,4.59999,2470.45,2021-9-05T05:48:26Z
2021-09-05T03:50:09Z,42.805,6.029,13.2987,4.60000,2470.413,2021-9-05T05:51:29Z
2021-09-05T03:53:12Z,42.805,6.029,13.2988,4.60000,2470.404,2021-9-05T05:54:32Z
2021-09-05T03:56:15Z,42.805,6.029,13.2985,4.60000,2470.45,2021-9-05T05:57:35Z
2021-09-05T03:59:18Z,42.805,6.029,13.2987,4.60000,2470.437,2021-9-05T06:00:39Z
2021-09-05T04:02:21Z,42.805,6.029,13.2986,4.60001,2470.413,2021-9-05T06:03:42Z
2021-09-05T04:05:25Z,42.805,6.029,13.2984,4.60001,2470.39,2021-9-05T06:06:45Z
2021-09-05T04:08:28Z,42.805,6.029,13.2987,4.60000,2470.413,2021-9-05T06:09:48Z
2021-09-05T04:11:31Z,42.805,6.029,13.2986,4.60000,2470.413,2021-9-05T06:12:51Z
2021-09-05T04:14:34Z,42.805,6.029,13.2988,4.59999,2470.437,2021-9-05T06:15:54Z
2021-09-05T04:17:37Z,42.805,6.029,13.2987,4.60001,2470.413,2021-9-05T06:18:57Z
2021-09-05T04:20:40Z,42.805,6.029,13.2986,4.60001,2470.413,2021-9-05T06:22:00Z
2021-09-05T04:23:43Z,42.805,6.029,13.2987,4.60000,2470.46,2021-9-05T06:25:03Z
2021-09-05T04:26:46Z,42.805,6.029,13.2983,4.59999,2470.413,2021-9-05T06:28:06Z
2021-09-05T04:29:49Z,42.805,6.029,13.2985,4.59999,2470.45,2021-9-05T06:31:10Z
2021-09-05T04:32:53Z,42.805,6.029,13.2988,4.60001,2470.46,2021-9-05T06:34:13Z
2021-09-05T04:35:56Z,42.805,6.029,13.2985,4.59999,2470.437,2021-9-05T06:37:16Z
2021-09-05T04:38:59Z,42.805,6.029,13.2986,4.60000,2470.46,2021-9-05T06:40:19Z
2021-09-05T04:42:02Z,42.805,6.029,13.2989,4.59999,2470.46,2021-9-05T06:43:22Z
2021-09-05T04:45:05Z,42.805,6.029,13.2986,4.60001,2470.45,2021-9-05T06:46:25Z
2021-09-05T04:48:08Z,42.805,6.029,13.2986,4.60000,2470.427,2021-9-05T06:49:28Z
2021-09-05T04:51:11Z,42.805,6.029,13.2985,4.60001,2470.437,2021-9-05T06:52:31Z
2021-09-05T04:54:14Z,42.805,6.029,13.2987,4.59999,2470.437,2021-9-05T06:55:35Z
2021-09-05T04:57:18Z,42.805,6.029,13.2987,4.60000,2470.46,2021-9-05T06:58:38Z
2021-09-05T05:00:21Z,42.805,6.029,13.2987,4.60001,2470.437,2021-9-05T07:01:41Z
2021-09-05T05:03:24Z,42.805,6.029,13.2986,4.60000,2470.45,2021-9-05T07:04:44Z
2021-09-05T05:06:27Z,42.805,6.029,13.2986,4.60000,2470.46,2021-9-05T07:07:47Z
2021-09-05T05:09:30Z,42.805,6.029,13.2989,4.59999,2470.46,2021-9-05T07:10:50Z
2021-09-05T05:12:33Z,42.805,6.029,13.2988,4.60000,2470.413,2021-9-05T07:13:53Z
2021-09-05T05:15:36Z,42.805,6.029,13.2991,4.60000,2470.46,2021-9-05T07:16:56Z
2021-09-05T05:18:39Z,42.805,6.029,13.2992,4.60000,2470.46,2021-9-05T07:20:00Z
2021-09-05T05:21:42Z,42.805,6.029,13.2983,4.60000,2470.46,2021-9-05T07:23:03Z
2021-09-05T05:24:46Z,42.805,6.029,13.2985,4.59999,2470.46,2021-9-05T07:26:06Z
2021-09-05T05:27:49Z,42.805,6.029,13.2984,4.59999,2470.474,2021-9-05T07:29:09Z
2021-09-05T05:30:52Z,42.805,6.029,13.2989,4.60002,2470.497,2021-9-05T07:32:12Z
2021-09-05T05:33:55Z,42.805,6.029,13.2983,4.59999,2470.446,2021-9-05T07:35:15Z
2021-09-05T05:36:58Z,42.805,6.029,13.2986,4.59999,2470.46,2021-9-05T07:38:18Z
2021-09-05T05:40:01Z,42.805,6.029,13.2990,4.59999,2470.437,2021-9-05T07:41:21Z
2021-09-05T05:43:04Z,42.805,6.029,13.2984,4.60002,2470.474,2021-9-05T07:44:24Z
2021-09-05T05:46:07Z,42.805,6.029,13.2987,4.60000,2470.474,2021-9-05T07:47:28Z
2021-09-05T05:49:11Z,42.805,6.029,13.2984,4.59999,2470.483,2021-9-05T07:50:31Z
2021-09-05T05:52:14Z,42.805,6.029,13.2990,4.60000,2470.46,2021-9-05T07:53:34Z
2021-09-05T05:55:17Z,42.805,6.029,13.2987,4.60000,2470.483,2021-9-05T07:56:37Z
2021-09-05T05:58:20Z,42.805,6.029,13.2986,4.59999,2470.46,2021-9-05T07:59:40Z
2021-09-05T06:01:23Z,42.805,6.029,13.2988,4.60000,2470.483,2021-9-05T08:02:43Z
2021-09-05T06:04:26Z,42.805,6.029,13.2984,4.59999,2470.483,2021-9-05T08:05:46Z
2021-09-05T06:07:29Z,42.805,6.029,13.2987,4.60001,2470.474,2021-9-05T08:08:49Z
2021-09-05T06:10:32Z,42.805,6.029,13.2986,4.59999,2470.437,2021-9-05T08:11:53Z
2021-09-05T06:13:35Z,42.805,6.029,13.2981,4.59999,2470.47,2021-9-05T08:14:56Z
2021-09-05T06:16:39Z,42.805,6.029,13.2986,4.59999,2470.507,2021-9-05T08:17:59Z
2021-09-05T06:19:42Z,42.805,6.029,13.2983,4.60000,2470.46,2021-9-05T08:21:02Z
2021-09-05T06:22:45Z,42.805,6.029,13.2987,4.59999,2470.474,2021-9-05T08:24:05Z
2021-09-05T06:25:48Z,42.805,6.029,13.2990,4.60000,2470.46,2021-9-05T08:27:08Z
2021-09-05T06:28:51Z,42.805,6.029,13.2989,4.59998,2470.483,2021-9-05T08:30:11Z
2021-09-05T06:31:54Z,42.805,6.029,13.2989,4.59999,2470.437,2021-9-05T08:33:14Z
2021-09-05T06:34:57Z,42.805,6.029,13.2986,4.59999,2470.46,2021-9-05T08:36:17Z
2021-09-05T06:38:00Z,42.805,6.029,13.2985,4.59999,2470.474,2021-9-05T08:39:21Z
2021-09-05T06:41:04Z,42.805,6.029,13.2984,4.59999,2470.483,2021-9-05T08:42:24Z
2021-09-05T06:44:07Z,42.805,6.029,13.2986,4.59999,2470.474,2021-9-05T08:45:27Z
2021-09-05T06:47:10Z,42.805,6.029,13.2984,4.59999,2470.437,2021-9-05T08:48:30Z
2021-09-05T06:50:13Z,42.805,6.029,13.2987,4.59999,2470.437,2021-9-05T08:51:33Z
2021-09-05T06:53:16Z,42.805,6.029,13.2985,4.59999,2470.483,2021-9-05T08:54:36Z
2021-09-05T06:56:19Z,42.805,6.029,13.2985,4.59998,2470.46,2021-9-05T08:57:39Z
2021-09-05T06:59:22Z,42.805,6.029,13.2983,4.59999,2470.46,2021-9-05T09:00:42Z
2021-09-05T07:02:25Z,42.805,6.029,13.2985,4.59999,2470.46,2021-9-05T09:03:46Z
2021-09-05T07:05:28Z,42.805,6.029,13.2985,4.60000,2470.497,2021-9-05T09:06:49Z
2021-09-05T07:08:32Z,42.805,6.029,13.2983,4.60001,2470.437,2021-9-05T09:09:52Z
2021-09-05T07:11:35Z,42.805,6.029,13.2989,4.59999,2470.474,2021-9-05T09:12:55Z
2021-09-05T07:14:38Z,42.805,6.029,13.2986,4.59999,2470.437,2021-9-05T09:15:58Z
2021-09-05T07:17:41Z,42.805,6.029,13.2990,4.60000,2470.437,2021-9-05T09:19:01Z
2021-09-05T07:20:44Z,42.805,6.029,13.2990,4.60000,2470.437,2021-9-05T09:22:04Z
2021-09-05T07:23:47Z,42.805,6.029,13.2988,4.59999,2470.46,2021-9-05T09:25:07Z
2021-09-05T07:26:50Z,42.805,6.029,13.2986,4.59999,2470.483,2021-9-05T09:28:11Z
2021-09-05T07:29:53Z,42.805,6.029,13.2988,4.60000,2470.423,2021-9-05T09:31:14Z
2021-09-05T07:32:57Z,42.805,6.029,13.2986,4.60000,2470.437,2021-9-05T09:34:17Z
2021-09-05T07:36:00Z,42.805,6.029,13.2988,4.60000,2470.46,2021-9-05T09:37:20Z
2021-09-05T07:39:03Z,42.805,6.029,13.2986,4.59999,2470.46,2021-9-05T09:40:23Z
2021-09-05T07:42:06Z,42.805,6.029,13.2985,4.59998,2470.437,2021-9-05T09:43:26Z
2021-09-05T07:45:09Z,42.805,6.029,13.2986,4.59999,2470.46,2021-9-05T09:46:29Z
2021-09-05T07:48:12Z,42.805,6.029,13.2983,4.59999,2470.46,2021-9-05T09:49:32Z
2021-09-05T07:51:15Z,42.805,6.029,13.2986,4.59999,2470.45,2021-9-05T09:52:35Z
2021-09-05T07:54:18Z,42.805,6.029,13.2986,4.59999,2470.46,2021-9-05T09:55:39Z
2021-09-05T07:57:22Z,42.805,6.029,13.2983,4.59999,2470.46,2021-9-05T09:58:42Z
2021-09-05T08:00:25Z,42.805,6.029,13.2986,4.59999,2470.446,2021-9-05T10:01:45Z
2021-09-05T08:03:28Z,42.805,6.029,13.2987,4.60000,2470.427,2021-9-05T10:04:48Z
2021-09-05T08:06:31Z,42.805,6.029,13.2983,4.59999,2470.46,2021-9-05T10:07:51Z
2021-09-05T08:09:34Z,42.805,6.029,13.2983,4.59999,2470.437,2021-9-05T10:10:54Z
2021-09-05T08:12:37Z,42.805,6.029,13.2987,4.60000,2470.474,2021-9-05T10:13:57Z
2021-09-05T08:15:40Z,42.805,6.029,13.2986,4.59999,2470.483,2021-9-05T10:17:00Z
2021-09-05T08:18:43Z,42.805,6.029,13.2987,4.59999,2470.437,2021-9-05T10:20:04Z
2021-09-05T08:21:46Z,42.805,6.029,13.2988,4.59999,2470.474,2021-9-05T10:23:07Z
2021-09-05T08:24:50Z,42.805,6.029,13.2987,4.59999,2470.46,2021-9-05T10:26:10Z
2021-09-05T08:27:53Z,42.805,6.029,13.2989,4.59999,2470.413,2021-9-05T10:29:13Z
2021-09-05T08:30:56Z,42.805,6.029,13.2987,4.59998,2470.437,2021-9-05T10:32:16Z
2021-09-05T08:33:59Z,42.805,6.029,13.2987,4.59999,2470.45,2021-9-05T10:35:19Z
2021-09-05T08:37:02Z,42.805,6.029,13.2983,4.59997,2470.45,2021-9-05T10:38:22Z
2021-09-05T08:40:05Z,42.805,6.029,13.2990,4.59997,2470.413,2021-9-05T10:41:25Z
2021-09-05T08:43:08Z,42.805,6.029,13.2984,4.60000,2470.404,2021-9-05T10:44:29Z
2021-09-05T08:46:11Z,42.805,6.029,13.2988,4.59999,2470.427,2021-9-05T10:47:32Z
2021-09-05T08:49:15Z,42.805,6.029,13.2984,4.60000,2470.39,2021-9-05T10:50:35Z
2021-09-05T08:52:18Z,42.805,6.029,13.2984,4.59998,2470.413,2021-9-05T10:53:38Z
2021-09-05T08:55:21Z,42.805,6.029,13.2988,4.59999,2470.45,2021-9-05T10:56:41Z
2021-09-05T08:58:24Z,42.805,6.029,13.2986,4.59998,2470.437,2021-9-05T10:59:44Z
2021-09-05T09:01:27Z,42.805,6.029,13.2986,4.59999,2470.404,2021-9-05T11:02:47Z
2021-09-05T09:04:30Z,42.805,6.029,13.2985,4.59998,2470.413,2021-9-05T11:05:50Z
2021-09-05T09:07:33Z,42.805,6.029,13.2985,4.59999,2470.45,2021-9-05T11:08:54Z
2021-09-05T09:10:36Z,42.805,6.029,13.2987,4.59999,2470.404,2021-9-05T11:11:57Z
2021-09-05T09:13:40Z,42.805,6.029,13.2989,4.59997,2470.404,2021-9-05T11:15:00Z
2021-09-05T09:16:43Z,42.805,6.029,13.2983,4.59998,2470.404,2021-9-05T11:18:03Z
2021-09-05T09:19:46Z,42.805,6.029,13.2986,4.59997,2470.413,2021-9-05T11:21:06Z
2021-09-05T09:22:49Z,42.805,6.029,13.2987,4.59998,2470.39,2021-9-05T11:24:09Z
2021-09-05T09:25:52Z,42.805,6.029,13.2989,4.59998,2470.404,2021-9-05T11:27:12Z
2021-09-05T09:28:55Z,42.805,6.029,13.2990,4.59999,2470.437,2021-9-05T11:30:15Z
2021-09-05T09:31:58Z,42.805,6.029,13.2986,4.59997,2470.39,2021-9-05T11:33:18Z
2021-09-05T09:35:01Z,42.805,6.029,13.2986,4.59998,2470.45,2021-9-05T11:36:22Z
2021-09-05T09:38:05Z,42.805,6.029,13.2984,4.59997,2470.404,2021-9-05T11:39:25Z
2021-09-05T09:41:08Z,42.805,6.029,13.2984,4.59997,2470.39,2021-9-05T11:42:28Z
2021-09-05T09:44:11Z,42.805,6.029,13.2986,4.59998,2470.404,2021-9-05T11:45:31Z
2021-09-05T09:47:14Z,42.805,6.029,13.2986,4.59998,2470.404,2021-9-05T11:48:34Z
2021-09-05T09:50:17Z,42.805,6.029,13.2985,4.59998,2470.343,2021-9-05T11:51:37Z
2021-09-05T09:53:20Z,42.805,6.029,13.2986,4.59999,2470.39,2021-9-05T11:54:40Z
2021-09-05T09:56:23Z,42.805,6.029,13.2985,4.59999,2470.404,2021-9-05T11:57:43Z
2021-09-05T09:59:26Z,42.805,6.029,13.2988,4.59999,2470.366,2021-9-05T12:00:47Z
2021-09-05T10:02:30Z,42.805,6.029,13.2983,4.59998,2470.366,2021-9-05T12:03:50Z
2021-09-05T10:05:33Z,42.805,6.029,13.2985,4.59999,2470.39,2021-9-05T12:06:53Z
2021-09-05T10:08:36Z,42.805,6.029,13.2988,4.59999,2470.39,2021-9-05T12:09:56Z
2021-09-05T10:11:39Z,42.805,6.029,13.2986,4.59998,2470.366,2021-9-05T12:12:59Z
2021-09-05T10:14:42Z,42.805,6.029,13.2987,4.60000,2470.39,2021-9-05T12:16:02Z
2021-09-05T10:17:45Z,42.805,6.029,13.2988,4.59999,2470.39,2021-9-05T12:19:05Z
2021-09-05T10:20:48Z,42.805,6.029,13.2989,4.59998,2470.39,2021-9-05T12:22:08Z
2021-09-05T10:23:51Z,42.805,6.029,13.2984,4.59999,2470.366,2021-9-05T12:25:12Z
2021-09-05T10:26:54Z,42.805,6.029,13.2986,4.59998,2470.353,2021-9-05T12:28:15Z
2021-09-05T10:29:58Z,42.805,6.029,13.2986,4.59999,2470.343,2021-9-05T12:31:18Z
2021-09-05T10:33:01Z,42.805,6.029,13.2986,4.59998,2470.39,2021-9-05T12:34:21Z
2021-09-05T10:36:04Z,42.805,6.029,13.2985,4.59999,2470.366,2021-9-05T12:37:24Z
2021-09-05T10:39:07Z,42.805,6.029,13.2984,4.59999,2470.357,2021-9-05T12:40:27Z
2021-09-05T10:42:10Z,42.805,6.029,13.2990,4.59999,2470.413,2021-9-05T12:43:30Z
2021-09-05T10:45:13Z,42.805,6.029,13.2988,4.59999,2470.366,2021-9-05T12:46:33Z
2021-09-05T10:48:16Z,42.805,6.029,13.2988,4.60000,2470.366,2021-9-05T12:49:37Z
2021-09-05T10:51:19Z,42.805,6.029,13.2990,4.59999,2470.38,2021-9-05T12:52:40Z
2021-09-05T10:54:23Z,42.805,6.029,13.2989,4.60000,2470.343,2021-9-05T12:55:43Z
2021-09-05T10:57:26Z,42.805,6.029,13.2991,4.59999,2470.343,2021-9-05T12:58:46Z
2021-09-05T11:00:29Z,42.805,6.029,13.2989,4.59998,2470.366,2021-9-05T13:01:49Z
2021-09-05T11:03:32Z,42.805,6.029,13.2986,4.59999,2470.366,2021-9-05T13:04:52Z
2021-09-05T11:06:35Z,42.805,6.029,13.2983,4.59997,2470.343,2021-9-05T13:07:55Z
2021-09-05T11:09:38Z,42.805,6.029,13.2988,4.59999,2470.366,2021-9-05T13:10:58Z
2021-09-05T11:12:41Z,42.805,6.029,13.2986,4.59998,2470.32,2021-9-05T13:14:02Z
2021-09-05T11:15:44Z,42.805,6.029,13.2986,4.59997,2470.343,2021-9-05T13:17:05Z
2021-09-05T11:18:48Z,42.805,6.029,13.2986,4.59998,2470.366,2021-9-05T13:20:08Z
2021-09-05T11:21:51Z,42.805,6.029,13.2986,4.59999,2470.343,2021-9-05T13:23:11Z
2021-09-05T11:24:54Z,42.805,6.029,13.2987,4.59998,2470.343,2021-9-05T13:26:14Z
2021-09-05T11:27:57Z,42.805,6.029,13.2984,4.59999,2470.366,2021-9-05T13:29:17Z
2021-09-05T11:31:00Z,42.805,6.029,13.2987,4.59999,2470.343,2021-9-05T13:32:20Z
2021-09-05T11:34:03Z,42.805,6.029,13.2988,4.59999,2470.297,2021-9-05T13:35:23Z
2021-09-05T11:37:06Z,42.805,6.029,13.2986,4.59998,2470.357,2021-9-05T13:38:26Z
2021-09-05T11:40:09Z,42.805,6.029,13.2986,4.59999,2470.343,2021-9-05T13:41:30Z
2021-09-05T11:43:13Z,42.805,6.029,13.2986,4.59998,2470.334,2021-9-05T13:44:33Z
2021-09-05T11:46:16Z,42.805,6.029,13.2988,4.60001,2470.343,2021-9-05T13:47:36Z
2021-09-05T11:49:19Z,42.805,6.029,13.2991,4.59997,2470.366,2021-9-05T13:50:39Z
2021-09-05T11:52:22Z,42.805,6.029,13.2986,4.59998,2470.343,2021-9-05T13:53:42Z
2021-09-05T11:55:25Z,42.805,6.029,13.2986,4.59998,2470.306,2021-9-05T13:56:45Z
2021-09-05T11:58:28Z,42.805,6.029,13.2987,4.59999,2470.334,2021-9-05T13:59:48Z
2021-09-05T12:01:31Z,42.805,6.029,13.2986,4.59999,2470.32,2021-9-05T14:02:51Z
2021-09-05T12:04:34Z,42.805,6.029,13.2987,4.60001,2470.32,2021-9-05T14:05:55Z
2021-09-05T12:07:38Z,42.805,6.029,13.2990,4.60000,2470.343,2021-9-05T14:08:58Z
2021-09-05T12:10:41Z,42.805,6.029,13.2986,4.59998,2470.32,2021-9-05T14:12:01Z
2021-09-05T12:13:44Z,42.805,6.029,13.2987,4.59997,2470.32,2021-9-05T14:15:04Z
2021-09-05T12:16:47Z,42.805,6.029,13.2986,4.59998,2470.343,2021-9-05T14:18:07Z
2021-09-05T12:19:50Z,42.805,6.029,13.2986,4.59997,2470.357,2021-9-05T14:21:10Z
2021-09-05T12:22:53Z,42.805,6.029,13.2988,4.59998,2470.32,2021-9-05T14:24:13Z
2021-09-05T12:25:56Z,42.805,6.029,13.2991,4.59998,2470.366,2021-9-05T14:27:16Z
2021-09-05T12:28:59Z,42.805,6.029,13.2986,4.60001,2470.334,2021-9-05T14:30:20Z
2021-09-05T12:32:02Z,42.805,6.029,13.2987,4.60000,2470.343,2021-9-05T14:33:23Z
2021-09-05T12:35:06Z,42.805,6.029,13.2987,4.59998,2470.357,2021-9-05T14:36:26Z
2021-09-05T12:38:09Z,42.805,6.029,13.2989,4.59998,2470.32,2021-9-05T14:39:29Z
2021-09-05T12:41:12Z,42.805,6.029,13.2986,4.59999,2470.343,2021-9-05T14:42:32Z
2021-09-05T12:44:15Z,42.805,6.029,13.2987,4.60002,2470.32,2021-9-05T14:45:35Z
2021-09-05T12:47:18Z,42.805,6.029,13.2986,4.60004,2470.32,2021-9-05T14:48:38Z
2021-09-05T12:50:21Z,42.805,6.029,13.2987,4.60006,2470.334,2021-9-05T14:51:41Z
2021-09-05T12:53:24Z,42.805,6.029,13.2990,4.59999,2470.31,2021-9-05T14:54:45Z
2021-09-05T12:56:27Z,42.805,6.029,13.2984,4.59999,2470.32,2021-9-05T14:57:48Z
2021-09-05T12:59:31Z,42.805,6.029,13.2986,4.59999,2470.38,2021-9-05T15:00:51Z
2021-09-05T13:02:34Z,42.805,6.029,13.2984,4.59998,2470.334,2021-9-05T15:03:54Z
2021-09-05T13:05:37Z,42.805,6.029,13.2987,4.59998,2470.343,2021-9-05T15:06:57Z
2021-09-05T13:08:40Z,42.805,6.029,13.2986,4.59999,2470.357,2021-9-05T15:10:00Z
2021-09-05T13:11:43Z,42.805,6.029,13.2988,4.59999,2470.334,2021-9-05T15:13:03Z
2021-09-05T13:14:46Z,42.805,6.029,13.2986,4.59998,2470.343,2021-9-05T15:16:06Z
2021-09-05T13:17:49Z,42.805,6.029,13.2986,4.59998,2470.32,2021-9-05T15:19:10Z
2021-09-05T13:20:52Z,42.805,6.029,13.2990,4.59998,2470.357,2021-9-05T15:22:13Z
2021-09-05T13:23:56Z,42.805,6.029,13.2986,4.60002,2470.32,2021-9-05T15:25:16Z
2021-09-05T13:26:59Z,42.805,6.029,13.2986,4.59999,2470.32,2021-9-05T15:28:19Z
2021-09-05T13:30:02Z,42.805,6.029,13.2989,4.59999,2470.343,2021-9-05T15:31:22Z
2021-09-05T13:33:05Z,42.805,6.029,13.2983,4.60001,2470.343,2021-9-05T15:34:25Z
2021-09-05T13:36:08Z,42.805,6.029,13.2986,4.59999,2470.357,2021-9-05T15:37:28Z
2021-09-05T13:39:11Z,42.805,6.029,13.2986,4.60003,2470.32,2021-9-05T15:40:31Z
2021-09-05T13:42:14Z,42.805,6.029,13.2987,4.59999,2470.343,2021-9-05T15:43:35Z
2021-09-05T13:45:17Z,42.805,6.029,13.2986,4.59997,2470.357,2021-9-05T15:46:38Z
2021-09-05T13:48:21Z,42.805,6.029,13.2986,4.59999,2470.357,2021-9-05T15:49:41Z
2021-09-05T13:51:24Z,42.805,6.029,13.2985,4.59999,2470.343,2021-9-05T15:52:44Z
2021-09-05T13:54:27Z,42.805,6.029,13.2986,4.60001,2470.38,2021-9-05T15:55:47Z
2021-09-05T13:57:30Z,42.805,6.029,13.2986,4.60001,2470.357,2021-9-05T15:58:50Z
2021-09-05T14:00:33Z,42.805,6.029,13.2984,4.59999,2470.357,2021-9-05T16:01:53Z
2021-09-05T14:03:36Z,42.805,6.029,13.2990,4.59997,2470.366,2021-9-05T16:04:56Z
2021-09-05T14:06:39Z,42.805,6.029,13.2984,4.59999,2470.38,2021-9-05T16:08:00Z
2021-09-05T14:09:42Z,42.805,6.029,13.2986,4.59999,2470.343,2021-9-05T16:11:03Z
2021-09-05T14:12:46Z,42.805,6.029,13.2988,4.59999,2470.343,2021-9-05T16:14:06Z
2021-09-05T14:15:49Z,42.805,6.029,13.2987,4.59999,2470.366,2021-9-05T16:17:09Z
2021-09-05T14:18:52Z,42.805,6.029,13.2983,4.60001,2470.366,2021-9-05T16:20:12Z
2021-09-05T14:21:55Z,42.805,6.029,13.2986,4.60000,2470.343,2021-9-05T16:23:15Z
2021-09-05T14:24:58Z,42.805,6.029,13.2986,4.59999,2470.39,2021-9-05T16:26:18Z
2021-09-05T14:28:01Z,42.805,6.029,13.2986,4.60001,2470.343,2021-9-05T16:29:21Z
2021-09-05T14:31:04Z,42.805,6.029,13.2984,4.60000,2470.39,2021-9-05T16:32:25Z
2021-09-05T14:34:07Z,42.805,6.029,13.2985,4.59999,2470.39,2021-9-05T16:35:28Z
2021-09-05T14:37:11Z,42.805,6.029,13.2990,4.60000,2470.38,2021-9-05T16:38:31Z
2021-09-05T14:40:14Z,42.805,6.029,13.2984,4.59999,2470.366,2021-9-05T16:41:34Z
2021-09-05T14:43:17Z,42.805,6.029,13.2986,4.60001,2470.404,2021-9-05T16:44:37Z
2021-09-05T14:46:20Z,42.805,6.029,13.2984,4.59999,2470.38,2021-9-05T16:47:40Z
2021-09-05T14:49:23Z,42.805,6.029,13.2988,4.60001,2470.404,2021-9-05T16:50:43Z
2021-09-05T14:52:26Z,42.805,6.029,13.2989,4.60001,2470.39,2021-9-05T16:53:46Z
2021-09-05T14:55:29Z,42.805,6.029,13.2987,4.60001,2470.404,2021-9-05T16:56:49Z
2021-09-05T14:58:32Z,42.805,6.029,13.2986,4.60001,2470.366,2021-9-05T16:59:53Z
2021-09-05T15:01:35Z,42.805,6.029,13.2985,4.59999,2470.399,2021-9-05T17:02:56Z
2021-09-05T15:04:39Z,42.805,6.029,13.2985,4.60003,2470.404,2021-9-05T17:05:59Z
2021-09-05T15:07:42Z,42.805,6.029,13.2990,4.60003,2470.437,2021-9-05T17:09:02Z
2021-09-05T15:10:45Z,42.805,6.029,13.2982,4.59999,2470.413,2021-9-05T17:12:05Z
2021-09-05T15:13:48Z,42.805,6.029,13.2986,4.60000,2470.427,2021-9-05T17:15:08Z